ASP613 CYQK-CYWG

Flight info

Callsign ASP613
Flight time 0h 27m
Altitude 20000
Route CYQK/26 EMIVA NORAK6
Aircraft C25C/M-SDE2E3FGHRWXY/LB1

Departure

Time 2026-05-05 02:44
Airport Kenora Airport (CYQK)

Arrival

Time 2026-05-05 03:12
Airport Winnipeg / James Armstrong Richardson International Airport (CYWG)
Time Latitude Longitude Altitude Speed Heading
2026-05-05 02:27 49.78963 -94.36445 1346 ft 0 kts 135°
2026-05-05 02:29 49.78963 -94.36446 1346 ft 0 kts 135°
2026-05-05 02:35 49.78964 -94.36446 1346 ft 0 kts 135°
2026-05-05 02:38 49.78963 -94.36446 1346 ft 1 kts 135°
2026-05-05 02:38 49.78942 -94.36437 1349 ft 0 kts 173°
2026-05-05 02:38 49.78933 -94.36457 1347 ft 4 kts 274°
2026-05-05 02:38 49.78934 -94.36475 1346 ft 0 kts 276°
2026-05-05 02:39 49.78934 -94.36487 1346 ft 7 kts 269°
2026-05-05 02:39 49.78891 -94.36481 1346 ft 1 kts 136°
2026-05-05 02:42 49.78865 -94.36458 1347 ft 10 kts 173°
2026-05-05 02:42 49.78827 -94.36352 1346 ft 20 kts 77°
2026-05-05 02:42 49.78865 -94.36086 1346 ft 31 kts 77°
2026-05-05 02:42 49.78920 -94.35710 1347 ft 41 kts 77°
2026-05-05 02:43 49.78987 -94.35270 1350 ft 28 kts 76°
2026-05-05 02:43 49.79005 -94.35145 1350 ft 5 kts 163°
2026-05-05 02:43 49.78993 -94.35172 1350 ft 0 kts 261°
2026-05-05 02:44 49.78960 -94.35437 1349 ft 73 kts 258°
2026-05-05 02:44 49.78776 -94.36694 1515 ft 150 kts 262°
2026-05-05 02:44 49.78510 -94.38360 2613 ft 174 kts 261°
2026-05-05 02:45 49.78181 -94.40405 3296 ft 222 kts 261°
2026-05-05 02:45 49.77784 -94.42901 4294 ft 247 kts 260°
2026-05-05 02:45 49.77358 -94.45566 5162 ft 260 kts 261°
2026-05-05 02:45 49.76949 -94.48206 6129 ft 236 kts 260°
2026-05-05 02:46 49.76632 -94.50167 6840 ft 221 kts 260°
2026-05-05 02:46 49.76574 -94.50526 6956 ft 220 kts 260°
2026-05-05 02:47 49.76204 -94.52917 7045 ft 242 kts 261°
2026-05-05 02:47 49.75804 -94.55539 7273 ft 253 kts 261°
2026-05-05 02:47 49.75346 -94.58219 7731 ft 263 kts 257°
2026-05-05 02:47 49.74915 -94.60994 8196 ft 268 kts 264°
2026-05-05 02:48 49.74793 -94.63890 8668 ft 271 kts 273°
2026-05-05 02:48 49.74885 -94.66826 9145 ft 276 kts 275°
2026-05-05 02:48 49.74941 -94.69822 9660 ft 281 kts 273°
2026-05-05 02:48 49.74969 -94.72861 10098 ft 285 kts 272°
2026-05-05 02:49 49.74973 -94.75939 10535 ft 288 kts 272°
2026-05-05 02:49 49.75005 -94.79118 11051 ft 314 kts 273°
2026-05-05 02:49 49.75026 -94.82732 11626 ft 349 kts 272°
2026-05-05 02:49 49.75052 -94.86308 12395 ft 324 kts 272°
2026-05-05 02:50 49.75067 -94.89865 13243 ft 338 kts 272°
2026-05-05 02:50 49.75098 -94.93565 14038 ft 350 kts 272°
2026-05-05 02:50 49.75087 -94.97369 14875 ft 357 kts 271°
2026-05-05 02:50 49.75070 -95.01227 15767 ft 360 kts 272°
2026-05-05 02:51 49.75063 -95.05127 16682 ft 365 kts 272°
2026-05-05 02:51 49.75060 -95.09069 17635 ft 369 kts 272°
2026-05-05 02:51 49.75050 -95.13062 18530 ft 374 kts 272°
2026-05-05 02:51 49.75037 -95.17132 19380 ft 381 kts 272°
2026-05-05 02:52 49.75026 -95.21293 19808 ft 392 kts 272°
2026-05-05 02:52 49.75009 -95.25356 19818 ft 364 kts 272°
2026-05-05 02:52 49.74990 -95.29149 19815 ft 342 kts 272°
2026-05-05 02:52 49.74978 -95.32727 19814 ft 325 kts 272°
2026-05-05 02:53 49.74963 -95.36099 19876 ft 311 kts 272°
2026-05-05 02:53 49.74953 -95.39619 19957 ft 348 kts 272°
2026-05-05 02:53 49.74938 -95.43589 19966 ft 388 kts 271°
2026-05-05 02:53 49.74913 -95.47924 19983 ft 408 kts 271°
2026-05-05 02:54 49.74874 -95.52079 19979 ft 366 kts 271°
2026-05-05 02:54 49.74850 -95.55822 19973 ft 333 kts 272°
2026-05-05 02:54 49.74832 -95.59258 19961 ft 308 kts 272°
2026-05-05 02:54 49.74813 -95.62452 19966 ft 287 kts 272°
2026-05-05 02:55 49.74790 -95.65456 19967 ft 271 kts 272°
2026-05-05 02:55 49.74773 -95.68299 19968 ft 258 kts 272°
2026-05-05 02:55 49.74749 -95.71011 19969 ft 247 kts 272°
2026-05-05 02:55 49.74732 -95.73622 19969 ft 238 kts 272°
2026-05-05 02:56 49.74711 -95.76144 19968 ft 231 kts 273°
2026-05-05 02:56 49.74691 -95.78586 19974 ft 224 kts 272°
2026-05-05 02:56 49.74676 -95.81060 19638 ft 244 kts 273°
2026-05-05 02:56 49.74654 -95.83954 19326 ft 294 kts 272°
2026-05-05 02:57 49.74628 -95.87308 19003 ft 336 kts 271°
2026-05-05 02:57 49.74584 -95.90985 18606 ft 343 kts 271°
2026-05-05 02:57 49.74553 -95.94702 18172 ft 352 kts 272°
2026-05-05 02:57 49.74518 -95.98570 17677 ft 366 kts 271°
2026-05-05 02:58 49.74480 -96.02561 17179 ft 376 kts 271°
2026-05-05 02:58 49.74432 -96.06583 16685 ft 363 kts 271°
2026-05-05 02:58 49.74381 -96.10364 16185 ft 343 kts 271°
2026-05-05 02:58 49.74346 -96.13982 15685 ft 330 kts 271°
2026-05-05 02:59 49.74306 -96.17482 15188 ft 320 kts 272°
2026-05-05 02:59 49.74270 -96.20857 14747 ft 319 kts 271°
2026-05-05 02:59 49.74227 -96.24320 14417 ft 325 kts 272°
2026-05-05 02:59 49.74188 -96.27834 14093 ft 329 kts 271°
2026-05-05 03:00 49.74138 -96.31382 13772 ft 332 kts 272°
2026-05-05 03:00 49.74096 -96.34954 13414 ft 333 kts 271°
2026-05-05 03:00 49.74044 -96.38544 13055 ft 334 kts 272°
2026-05-05 03:00 49.74001 -96.42141 12697 ft 335 kts 271°
2026-05-05 03:01 49.73944 -96.45747 12347 ft 335 kts 271°
2026-05-05 03:01 49.73899 -96.49354 11997 ft 335 kts 271°
2026-05-05 03:01 49.73873 -96.52946 11641 ft 332 kts 275°
2026-05-05 03:01 49.74144 -96.56330 11264 ft 303 kts 280°
2026-05-05 03:02 49.74357 -96.59466 10736 ft 284 kts 278°
2026-05-05 03:02 49.74570 -96.62427 10213 ft 270 kts 279°
2026-05-05 03:02 49.74770 -96.65264 9701 ft 260 kts 279°
2026-05-05 03:02 49.74972 -96.68008 9122 ft 253 kts 279°
2026-05-05 03:03 49.75158 -96.70684 8567 ft 248 kts 279°
2026-05-05 03:03 49.75349 -96.73309 8023 ft 244 kts 280°
2026-05-05 03:03 49.75527 -96.75871 7493 ft 242 kts 279°
2026-05-05 03:03 49.75711 -96.78446 6968 ft 240 kts 280°
2026-05-05 03:04 49.75795 -96.79591 6725 ft 239 kts 281°
2026-05-05 03:04 49.75967 -96.82133 6202 ft 236 kts 282°
2026-05-05 03:04 49.76149 -96.84643 5659 ft 234 kts 281°
2026-05-05 03:04 49.76310 -96.87112 5158 ft 218 kts 281°
2026-05-05 03:05 49.76460 -96.89290 4665 ft 192 kts 282°
2026-05-05 03:05 49.76598 -96.91259 4154 ft 178 kts 282°
2026-05-05 03:05 49.76730 -96.93134 4012 ft 171 kts 281°
2026-05-05 03:05 49.76857 -96.94926 3988 ft 163 kts 282°
2026-05-05 03:06 49.76984 -96.96731 3987 ft 179 kts 282°
2026-05-05 03:06 49.77124 -96.98671 3995 ft 192 kts 281°
2026-05-05 03:06 49.77271 -97.00828 3996 ft 205 kts 281°
2026-05-05 03:06 49.77422 -97.03053 3995 ft 213 kts 281°
2026-05-05 03:07 49.77578 -97.05326 4000 ft 211 kts 283°
2026-05-05 03:07 49.78233 -97.07304 3923 ft 208 kts 313°
2026-05-05 03:07 49.79253 -97.08641 3667 ft 174 kts 321°
2026-05-05 03:07 49.80120 -97.09808 3428 ft 162 kts 321°
2026-05-05 03:08 49.80987 -97.10959 3203 ft 166 kts 319°
2026-05-05 03:08 49.81888 -97.12198 2957 ft 185 kts 320°
2026-05-05 03:08 49.82853 -97.13528 2687 ft 171 kts 319°
2026-05-05 03:08 49.83639 -97.14616 2477 ft 129 kts 320°
2026-05-05 03:09 49.84050 -97.15189 2356 ft 113 kts 320°
2026-05-05 03:09 49.84760 -97.16174 2159 ft 100 kts 320°
2026-05-05 03:09 49.85017 -97.16525 2091 ft 102 kts 320°
2026-05-05 03:09 49.85720 -97.17501 1901 ft 101 kts 320°
2026-05-05 03:10 49.86215 -97.18188 1744 ft 94 kts 319°
2026-05-05 03:10 49.86711 -97.18871 1594 ft 96 kts 320°
2026-05-05 03:10 49.87046 -97.19371 1512 ft 102 kts 319°
2026-05-05 03:10 49.87572 -97.20121 1388 ft 103 kts 321°
2026-05-05 03:11 49.88104 -97.20850 1269 ft 101 kts 322°
2026-05-05 03:11 49.88630 -97.21577 1152 ft 102 kts 321°
2026-05-05 03:11 49.89180 -97.22323 974 ft 108 kts 318°
2026-05-05 03:11 49.89725 -97.23077 794 ft 98 kts 322°
2026-05-05 03:12 49.90123 -97.23608 781 ft 42 kts 319°
2026-05-05 03:12 49.90235 -97.23766 780 ft 13 kts 315°
2026-05-05 03:12 49.90299 -97.23858 779 ft 12 kts 319°
2026-05-05 03:12 49.90363 -97.23945 779 ft 12 kts 321°
2026-05-05 03:13 49.90357 -97.23995 779 ft 6 kts 194°
2026-05-05 03:13 49.90297 -97.24010 778 ft 11 kts 189°
2026-05-05 03:13 49.90213 -97.24028 777 ft 14 kts 188°
2026-05-05 03:13 49.90090 -97.24057 779 ft 22 kts 188°
2026-05-05 03:14 49.89911 -97.24101 779 ft 29 kts 189°
2026-05-05 03:14 49.89711 -97.24150 783 ft 31 kts 188°
2026-05-05 03:14 49.89573 -97.24086 781 ft 21 kts 97°
2026-05-05 03:14 49.89552 -97.23832 779 ft 26 kts 98°
2026-05-05 03:15 49.89528 -97.23531 779 ft 29 kts 96°
2026-05-05 03:15 49.89478 -97.23365 779 ft 11 kts 138°
2026-05-05 03:15 49.89421 -97.23300 780 ft 11 kts 135°
2026-05-05 03:15 49.89363 -97.23212 780 ft 11 kts 134°
2026-05-05 03:16 49.89328 -97.23222 780 ft 4 kts 244°
2026-05-05 03:16 49.89325 -97.23228 780 ft 0 kts 236°